Location: Palmerston North
(40.3500°S, 175.6170°E)
Time: 09:06:33
(UTC+13:00)

Cosmos 1707 Rocket - Pass Details

Date: 24 January 2019
Orbit: 604 x 633 km, 82.5° (Epoch: 20 February)

Event Time Altitude Azimuth Distance (km) Brightness Sun altitude
Exits shadow 22:55:34 54° 27° (NNE) 746 3.5 -20.5°
Maximum altitude 22:56:22 69° 84° (E) 659 3.4 -20.6°
Drops below altitude 10° 23:00:45 10° 167° (SSE) 1,990 6.7 -21.1°
Sets 23:03:00 0° 169° (S) 2,905 7.6 -21.4°
